STARLINK-35346, 66179

Orbit data source: Space-Track

STARLINK-35346, 66179 is a payload satellite owned by SpaceX/Seattle (US) in LEO that was launched on Sun, 26 Oct 2025 UTC via an FALCON 9 launch vehicle from the Air Force Eastern Test Range (AFETR). Payload-class satellites include a variety of spacecraft equipped with specific instruments for various scientific and technological missions. These include communications satellites like Starlink; space stations such as the ISS; scientific satellites like the Hubble; Earth observation satellites from companies like Planet Labs, Umbra, and HawkEye 360; GPS; miniature CubeSats for education and research; and military/defense satellites.

Loading next visibility...
Identifier
66179, 2025-243C
Orbit
LEO
Country
Flag of USUS
Related business
Manufacturer
SpaceX/Seattle
Mission
Operational Commercial Communications
Bus & Motor
STARLINK V2MO, Unknown motor
Mass
575 kg wet, ~530 kg dry
Launch date (UTC)
2025-10-26 (4 months ago)
Launch vehicle
FALCON 9
Launch site
Air Force Eastern Test Range (AFETR)
Object type
Payload
Rocket body
Debris
Shape & HBR
Box + 2 Pan, 17.7 m
Radar Cross Section
36.964 m²

Expand to show TLE details & history
Last TLE update: 9 hours ago

TLE from 9 hours ago
0 STARLINK-35346
1 66179U 25243C   26061.77845407  .00034912  00000-0  11849-2 0  9996
2 66179  53.1590 277.4959 0001064  61.0850 299.0257 15.30213150 19597
Epoch: 2026-03-02T18:40Z
TLE epoch observation values (Epoch: 2026-03-02T18:40:58.431Z)
Latitude
-0.00006°
Longitude
-163.31459°
Altitude
475.722 km
Speed
7.629 km/s
True Right ascension
18h 29m 59s
True Declination
0° 00' 00"
Sunlit
Object was in daylight at epoch
Visualization orbit readout
Latitude
Unknown
Longitude
Unknown
Altitude
Unknown
Speed
Unknown
Apparent Right ascension
Unknown
Apparent Declination
Unknown
Sunlit
N/A
Visualization observer readout
Local Sidereal Time
07:12:46
Azimuth
Unknown
Elevation
Unknown
Doppler factor
Unknown
Orbital elements
Apogee altitude
476.162 km
Perigee altitude
474.703 km
Semi-major axis
6,853.569 km
Eccentricity
0.00011
Inclination
53.159°
RAAN
277.4959°
Arg. of periapsis
61.085°
True anomaly
299.01504°
Mean anomaly
299.0257°
Eccentric anomaly
299.02037°
Mean motion
3.82532 °/min
Orbital period
94.11 mins
BSTAR
0.0011849
Loading maneuver chart data...
Computing Atmospheric mass density...
Loading historical data...
Loading historical data...
Loading historical data...
Loading historical data...
Loading historical data...
Loading historical data...
Loading historical data...

Documentation

Showing up to 5 results
|